| time (UTC) | temp F | wind direction | speed MPH | gust MPH | rain 1hr in | rain 24hr in | rain mn in | humidity % | barometer mb |
| 20260507232618 | 61 | 299 | 1.0 | 3.0 | 0.00 | 0.00 | 0.00 | 56 | 1018.4 |
| 20260507232117 | 61 | 324 | 2.0 | 4.0 | 0.00 | 0.00 | 0.00 | 56 | 1018.3 |
| 20260507231838 | 61 | 338 | 3.0 | 4.0 | 0.00 | 0.00 | 0.00 | 56 | 1018.3 |
| 20260507231118 | 61 | 329 | 2.0 | 4.0 | 0.00 | 0.00 | 0.00 | 56 | 1018.3 |
| 20260507230616 | 61 | 312 | 2.0 | 3.0 | 0.00 | 0.00 | 0.00 | 56 | 1018.3 |
| 20260507230117 | 62 | 313 | 2.0 | 3.0 | 0.00 | 0.00 | 0.00 | 56 | 1018.5 |
| 20260507225617 | 62 | 313 | 2.0 | 2.0 | 0.00 | 0.00 | 0.00 | 56 | 1018.6 |
| 20260507225116 | 62 | 314 | 2.0 | 3.0 | 0.00 | 0.00 | 0.00 | 56 | 1018.6 |
| 20260507224617 | 62 | 314 | 1.0 | 3.0 | 0.00 | 0.00 | 0.00 | 56 | 1018.5 |
| 20260507224116 | 62 | 312 | 2.0 | 4.0 | 0.00 | 0.00 | 0.00 | 57 | 1018.7 |
| 20260507223616 | 62 | 321 | 2.0 | 4.0 | 0.00 | 0.00 | 0.00 | 57 | 1018.8 |
| 20260507223117 | 62 | 307 | 2.0 | 3.0 | 0.00 | 0.00 | 0.00 | 57 | 1018.8 |
| 20260507222617 | 62 | 329 | 1.0 | 3.0 | 0.00 | 0.00 | 0.00 | 57 | 1018.8 |
| 20260507222115 | 62 | 329 | 0.0 | 2.0 | 0.00 | 0.00 | 0.00 | 57 | 1018.7 |
| 20260507221616 | 62 | 330 | 1.0 | 3.0 | 0.00 | 0.00 | 0.00 | 57 | 1018.7 |
| 20260507221116 | 62 | 330 | 2.0 | 4.0 | 0.00 | 0.00 | 0.00 | 57 | 1018.6 |
| 20260507220616 | 62 | 317 | 2.0 | 4.0 | 0.00 | 0.00 | 0.00 | 57 | 1018.5 |
| 20260507220336 | 62 | 316 | 2.0 | 3.0 | 0.00 | 0.00 | 0.00 | 57 | 1018.5 |
| 20260507215616 | 62 | 313 | 2.0 | 3.0 | 0.00 | 0.00 | 0.00 | 58 | 1018.6 |
| 20260507215116 | 62 | 313 | 2.0 | 3.0 | 0.00 | 0.00 | 0.00 | 58 | 1018.6 |
| 20260507214837 | 62 | 314 | 0.0 | 3.0 | 0.00 | 0.00 | 0.00 | 58 | 1018.7 |
| 20260507214116 | 62 | 317 | 2.0 | 3.0 | 0.00 | 0.00 | 0.00 | 58 | 1018.7 |
| 20260507213616 | 62 | 319 | 0.0 | 2.0 | 0.00 | 0.00 | 0.00 | 58 | 1018.7 |
| 20260507213116 | 62 | 316 | 2.0 | 2.0 | 0.00 | 0.00 | 0.00 | 58 | 1018.8 |
| 20260507212616 | 62 | 321 | 0.0 | 3.0 | 0.00 | 0.00 | 0.00 | 58 | 1018.9 |
| 20260507212114 | 62 | 321 | 2.0 | 3.0 | 0.00 | 0.00 | 0.00 | 58 | 1018.9 |
| 20260507211615 | 62 | 323 | 0.0 | 4.0 | 0.00 | 0.00 | 0.00 | 58 | 1018.7 |
| 20260507211114 | 62 | 340 | 1.0 | 4.0 | 0.00 | 0.00 | 0.00 | 58 | 1018.7 |
| 20260507210839 | 62 | 0 | 2.0 | 4.0 | 0.00 | 0.00 | 0.00 | 57 | 1018.6 |
| 20260507210113 | 62 | 321 | 0.0 | 3.0 | 0.00 | 0.00 | 0.00 | 58 | 1018.5 |
| 20260507205614 | 62 | 306 | 1.0 | 4.0 | 0.00 | 0.00 | 0.00 | 58 | 1018.6 |
| 20260507205113 | 62 | 309 | 3.0 | 4.0 | 0.00 | 0.00 | 0.00 | 57 | 1018.7 |
| 20260507204613 | 62 | 314 | 0.0 | 0.0 | 0.00 | 0.00 | 0.00 | 58 | 1018.6 |
| 20260507204336 | 62 | 314 | 0.0 | 0.0 | 0.00 | 0.00 | 0.00 | 57 | 1018.8 |
| 20260507203614 | 62 | 314 | 0.0 | 0.0 | 0.00 | 0.00 | 0.00 | 57 | 1018.8 |
| 20260507203113 | 62 | 314 | 0.0 | 0.0 | 0.00 | 0.00 | 0.00 | 57 | 1018.7 |
| 20260507202841 | 62 | 314 | 0.0 | 0.0 | 0.00 | 0.00 | 0.00 | 57 | 1018.7 |
| 20260507202114 | 62 | 313 | 0.0 | 1.0 | 0.00 | 0.00 | 0.00 | 57 | 1018.6 |
| 20260507201612 | 63 | 313 | 0.0 | 3.0 | 0.00 | 0.00 | 0.00 | 57 | 1018.5 |
| 20260507201111 | 63 | 0 | 2.0 | 3.0 | 0.00 | 0.00 | 0.00 | 57 | 1018.5 |
| 20260507200613 | 63 | 316 | 0.0 | 0.0 | 0.00 | 0.00 | 0.00 | 57 | 1018.3 |
| 20260507200112 | 63 | 321 | 0.0 | 0.0 | 0.00 | 0.00 | 0.00 | 57 | 1018.4 |
| 20260507195838 | 63 | 321 | 0.0 | 0.0 | 0.00 | 0.00 | 0.00 | 57 | 1018.6 |
| 20260507195113 | 63 | 321 | 0.0 | 0.0 | 0.00 | 0.00 | 0.00 | 57 | 1018.6 |
| 20260507194612 | 63 | 321 | 0.0 | 0.0 | 0.00 | 0.00 | 0.00 | 57 | 1018.6 |
| 20260507194112 | 63 | 321 | 0.0 | 0.0 | 0.00 | 0.00 | 0.00 | 57 | 1018.5 |
| 20260507193612 | 63 | 321 | 0.0 | 0.0 | 0.00 | 0.00 | 0.00 | 57 | 1018.6 |
| 20260507193111 | 64 | 321 | 0.0 | 0.0 | 0.00 | 0.00 | 0.00 | 57 | 1018.7 |
| 20260507192611 | 64 | 321 | 0.0 | 0.0 | 0.00 | 0.00 | 0.00 | 57 | 1018.6 |
| 20260507192331 | 64 | 321 | 0.0 | 0.0 | 0.00 | 0.00 | 0.00 | 57 | 1018.6 |
| 20260507191611 | 64 | 314 | 0.0 | 0.0 | 0.00 | 0.00 | 0.00 | 57 | 1018.6 |
| 20260507191112 | 63 | 305 | 0.0 | 3.0 | 0.00 | 0.00 | 0.00 | 57 | 1018.7 |
| 20260507190611 | 63 | 303 | 0.0 | 3.0 | 0.00 | 0.00 | 0.00 | 57 | 1018.8 |
| 20260507190110 | 63 | 306 | 1.0 | 3.0 | 0.00 | 0.00 | 0.00 | 57 | 1018.8 |
| 20260507185611 | 63 | 321 | 1.0 | 3.0 | 0.00 | 0.00 | 0.00 | 57 | 1018.8 |
| 20260507185111 | 64 | 353 | 0.0 | 4.0 | 0.00 | 0.00 | 0.00 | 57 | 1018.8 |
| 20260507184611 | 64 | 351 | 2.0 | 4.0 | 0.00 | 0.00 | 0.00 | 57 | 1018.7 |
| 20260507184113 | 64 | 299 | 2.0 | 4.0 | 0.00 | 0.00 | 0.00 | 57 | 1018.8 |
| 20260507184105 | 64 | 264 | 0.0 | 3.0 | 0.00 | 0.00 | 0.00 | 57 | 1018.7 |
| 20260507183111 | 64 | 264 | 0.0 | 3.0 | 0.00 | 0.00 | 0.00 | 57 | 1018.6 |
| 20260507182610 | 64 | 231 | 0.0 | 0.0 | 0.00 | 0.00 | 0.00 | 57 | 1018.6 |
| 20260507182110 | 65 | 173 | 0.0 | 0.0 | 0.00 | 0.00 | 0.00 | 57 | 1018.7 |
| 20260507181610 | 65 | 172 | 0.0 | 0.0 | 0.00 | 0.00 | 0.00 | 57 | 1018.7 |
| 20260507181110 | 65 | 172 | 0.0 | 0.0 | 0.00 | 0.00 | 0.00 | 57 | 1018.6 |
| 20260507180610 | 65 | 171 | 0.0 | 0.0 | 0.00 | 0.00 | 0.00 | 57 | 1018.6 |
| 20260507180109 | 65 | 171 | 0.0 | 0.0 | 0.00 | 0.00 | 0.00 | 57 | 1018.6 |
| 20260507175609 | 65 | 171 | 0.0 | 0.0 | 0.00 | 0.00 | 0.00 | 57 | 1018.5 |
| 20260507175109 | 66 | 172 | 0.0 | 0.0 | 0.00 | 0.00 | 0.00 | 57 | 1018.6 |
| 20260507174609 | 66 | 171 | 0.0 | 0.0 | 0.00 | 0.00 | 0.00 | 57 | 1018.6 |
| 20260507174110 | 66 | 171 | 0.0 | 0.0 | 0.00 | 0.00 | 0.00 | 56 | 1018.5 |
| 20260507173839 | 67 | 171 | 0.0 | 1.0 | 0.00 | 0.00 | 0.00 | 57 | 1018.4 |
| 20260507173330 | 67 | 171 | 0.0 | 1.0 | 0.00 | 0.00 | 0.00 | 56 | 1018.4 |
| 20260507172610 | 68 | 171 | 0.0 | 1.0 | 0.00 | 0.00 | 0.00 | 57 | 1018.3 |
| 20260507172110 | 68 | 171 | 0.0 | 2.0 | 0.00 | 0.00 | 0.00 | 57 | 1018.4 |
| 20260507171609 | 68 | 171 | 0.0 | 2.0 | 0.00 | 0.00 | 0.00 | 57 | 1018.6 |
| 20260507171109 | 69 | 171 | 1.0 | 2.0 | 0.00 | 0.00 | 0.00 | 57 | 1018.5 |
| 20260507170621 | 69 | 171 | 0.0 | 0.0 | 0.00 | 0.00 | 0.00 | 56 | 1018.7 |
| 20260507170108 | 69 | 171 | 0.0 | 2.0 | 0.00 | 0.00 | 0.00 | 56 | 1018.5 |
| 20260507165608 | 69 | 171 | 0.0 | 3.0 | 0.00 | 0.00 | 0.00 | 56 | 1018.3 |
| 20260507165330 | 69 | 171 | 2.0 | 3.0 | 0.00 | 0.00 | 0.00 | 55 | 1018.3 |
| 20260507164609 | 69 | 171 | 0.0 | 0.0 | 0.00 | 0.00 | 0.00 | 55 | 1018.3 |
| 20260507164333 | 70 | 171 | 0.0 | 0.0 | 0.00 | 0.00 | 0.00 | 55 | 1018.4 |
| 20260507163606 | 70 | 171 | 0.0 | 0.0 | 0.00 | 0.00 | 0.00 | 54 | 1018.2 |
| 20260507163107 | 70 | 171 | 0.0 | 2.0 | 0.00 | 0.00 | 0.00 | 54 | 1018.2 |
| 20260507162608 | 70 | 171 | 1.0 | 3.0 | 0.00 | 0.00 | 0.00 | 53 | 1018.2 |
| 20260507162107 | 71 | 171 | 1.0 | 3.0 | 0.00 | 0.00 | 0.00 | 52 | 1018.2 |
| 20260507161829 | 71 | 171 | 1.0 | 3.0 | 0.00 | 0.00 | 0.00 | 51 | 1018.3 |
| 20260507161108 | 71 | 171 | 2.0 | 3.0 | 0.00 | 0.00 | 0.00 | 50 | 1018.3 |
| 20260507160608 | 71 | 169 | 0.0 | 3.0 | 0.00 | 0.00 | 0.00 | 48 | 1018.2 |
| 20260507160329 | 72 | 169 | 2.0 | 3.0 | 0.00 | 0.00 | 0.00 | 48 | 1018.4 |
| 20260507155607 | 72 | 175 | 2.0 | 3.0 | 0.00 | 0.00 | 0.00 | 46 | 1018.2 |
| 20260507155104 | 72 | 192 | 0.0 | 3.0 | 0.00 | 0.00 | 0.00 | 43 | 1018.3 |
| 20260507154606 | 71 | 0 | 0.0 | 2.0 | 0.00 | 0.00 | 0.00 | 42 | 1018.1 |
| 20260507154107 | 71 | 252 | 0.0 | 2.0 | 0.00 | 0.00 | 0.00 | 43 | 1018.1 |
| 20260507153606 | 71 | 252 | 0.0 | 3.0 | 0.00 | 0.00 | 0.00 | 45 | 1018.0 |
| 20260507153108 | 71 | 252 | 1.0 | 5.0 | 0.00 | 0.00 | 0.00 | 46 | 1018.1 |
| 20260507152605 | 71 | 210 | 1.0 | 5.0 | 0.00 | 0.00 | 0.00 | 47 | 1018.1 |
| 20260507152106 | 71 | 195 | 4.0 | 5.0 | 0.00 | 0.00 | 0.00 | 48 | 1018.1 |
| 20260507151607 | 72 | 221 | 2.0 | 5.0 | 0.00 | 0.00 | 0.00 | 48 | 1018.2 |
| 20260507151106 | 72 | 161 | 3.0 | 5.0 | 0.00 | 0.00 | 0.00 | 48 | 1018.3 |
| 20260507150604 | 72 | 183 | 2.0 | 6.0 | 0.00 | 0.00 | 0.00 | 47 | 1018.3 |
| 20260507150105 | 72 | 196 | 2.0 | 6.0 | 0.00 | 0.00 | 0.00 | 45 | 1018.2 |
| 20260507145605 | 71 | 207 | 4.0 | 6.0 | 0.00 | 0.00 | 0.00 | 43 | 1018.3 |
| 20260507145106 | 71 | 192 | 4.0 | 6.0 | 0.00 | 0.00 | 0.00 | 43 | 1018.2 |
| 20260507144833 | 72 | 243 | 3.0 | 6.0 | 0.00 | 0.00 | 0.00 | 42 | 1018.1 |
| 20260507144331 | 72 | 175 | 4.0 | 7.0 | 0.00 | 0.00 | 0.00 | 42 | 1018.2 |
| 20260507143604 | 72 | 228 | 5.0 | 7.0 | 0.00 | 0.00 | 0.00 | 42 | 1018.3 |
| 20260507143106 | 72 | 0 | 4.0 | 7.0 | 0.00 | 0.00 | 0.00 | 44 | 1018.2 |
| 20260507142605 | 72 | 220 | 2.0 | 7.0 | 0.00 | 0.00 | 0.00 | 45 | 1018.1 |
| 20260507142330 | 71 | 238 | 4.0 | 7.0 | 0.00 | 0.00 | 0.00 | 45 | 1018.2 |
| 20260507141606 | 71 | 182 | 3.0 | 7.0 | 0.00 | 0.00 | 0.00 | 45 | 1018.3 |
| 20260507141104 | 71 | 0 | 5.0 | 9.0 | 0.00 | 0.00 | 0.00 | 46 | 1018.3 |
| 20260507140605 | 70 | 257 | 3.0 | 9.0 | 0.00 | 0.00 | 0.00 | 50 | 1018.3 |
| 20260507140104 | 70 | 235 | 4.0 | 7.0 | 0.00 | 0.00 | 0.00 | 51 | 1018.2 |
| 20260507135826 | 69 | 233 | 4.0 | 7.0 | 0.00 | 0.00 | 0.00 | 52 | 1018.2 |
| 20260507135105 | 70 | 0 | 3.0 | 7.0 | 0.00 | 0.00 | 0.00 | 54 | 1018.3 |
| 20260507134604 | 70 | 0 | 3.0 | 10.0 | 0.00 | 0.00 | 0.00 | 55 | 1018.4 |
| 20260507134106 | 70 | 223 | 6.0 | 10.0 | 0.00 | 0.00 | 0.00 | 54 | 1018.5 |
| 20260507133604 | 71 | 190 | 3.0 | 7.0 | 0.00 | 0.00 | 0.00 | 55 | 1018.6 |
| 20260507133103 | 71 | 200 | 5.0 | 9.0 | 0.00 | 0.00 | 0.00 | 53 | 1018.6 |
| 20260507132603 | 71 | 214 | 5.0 | 10.0 | 0.00 | 0.00 | 0.00 | 51 | 1018.8 |
| 20260507132104 | 72 | 0 | 6.0 | 10.0 | 0.00 | 0.00 | 0.00 | 50 | 1018.7 |
| 20260507131604 | 72 | 0 | 3.0 | 10.0 | 0.00 | 0.00 | 0.00 | 50 | 1018.5 |
| 20260507131103 | 72 | 257 | 6.0 | 10.0 | 0.00 | 0.00 | 0.00 | 50 | 1018.3 |
| 20260507130605 | 72 | 166 | 4.0 | 9.0 | 0.00 | 0.00 | 0.00 | 50 | 1018.2 |
| 20260507125604 | 72 | 207 | 6.0 | 10.0 | 0.00 | 0.00 | 0.00 | 51 | 1018.6 |
| 20260507125102 | 72 | 0 | 6.0 | 10.0 | 0.00 | 0.00 | 0.00 | 52 | 1018.7 |
| 20260507124603 | 72 | 0 | 4.0 | 9.0 | 0.00 | 0.00 | 0.00 | 52 | 1018.8 |
| 20260507124102 | 72 | 0 | 5.0 | 9.0 | 0.00 | 0.00 | 0.00 | 51 | 1018.8 |
| 20260507123603 | 72 | 0 | 4.0 | 11.0 | 0.00 | 0.00 | 0.00 | 52 | 1018.9 |
| 20260507123103 | 72 | 185 | 6.0 | 11.0 | 0.00 | 0.00 | 0.00 | 50 | 1019.1 |
| 20260507122603 | 73 | 154 | 3.0 | 9.0 | 0.00 | 0.00 | 0.00 | 50 | 1019.0 |
| 20260507122104 | 73 | 172 | 2.0 | 10.0 | 0.00 | 0.00 | 0.00 | 51 | 1019.1 |
| 20260507122053 | 72 | 0 | 4.0 | 10.0 | 0.00 | 0.00 | 0.00 | 51 | 1018.9 |
| 20260507121101 | 72 | 192 | 6.0 | 10.0 | 0.00 | 0.00 | 0.00 | 51 | 1019.0 |
| 20260507120826 | 72 | 199 | 5.0 | 12.0 | 0.00 | 0.00 | 0.00 | 53 | 1019.0 |
| 20260507120103 | 72 | 0 | 5.0 | 12.0 | 0.00 | 0.00 | 0.00 | 53 | 1019.1 |
| 20260507120052 | 72 | 0 | 6.0 | 11.0 | 0.00 | 0.00 | 0.00 | 54 | 1019.0 |
| 20260507115103 | 72 | 220 | 5.0 | 12.0 | 0.00 | 0.00 | 0.00 | 54 | 1019.0 |
| 20260507114601 | 71 | 0 | 4.0 | 12.0 | 0.00 | 0.00 | 0.00 | 54 | 1018.9 |
| 20260507114101 | 71 | 0 | 4.0 | 11.0 | 0.00 | 0.00 | 0.00 | 53 | 1018.8 |
| 20260507113823 | 71 | 241 | 6.0 | 11.0 | 0.00 | 0.00 | 0.00 | 52 | 1018.8 |
| 20260507113100 | 71 | 151 | 4.0 | 11.0 | 0.00 | 0.00 | 0.00 | 51 | 1018.8 |
| 20260507112602 | 72 | 0 | 6.0 | 11.0 | 0.00 | 0.00 | 0.00 | 51 | 1018.8 |
| 20260507112334 | 72 | 0 | 6.0 | 11.0 | 0.00 | 0.00 | 0.00 | 51 | 1018.8 |
| 20260507111602 | 71 | 0 | 5.0 | 11.0 | 0.00 | 0.00 | 0.00 | 51 | 1018.8 |
| 20260507111100 | 71 | 0 | 6.0 | 11.0 | 0.00 | 0.00 | 0.00 | 52 | 1018.8 |
| 20260507110601 | 71 | 0 | 5.0 | 12.0 | 0.00 | 0.00 | 0.00 | 52 | 1018.7 |
| 20260507110100 | 71 | 0 | 8.0 | 13.0 | 0.00 | 0.00 | 0.00 | 51 | 1018.8 |
| 20260507105600 | 70 | 178 | 7.0 | 13.0 | 0.00 | 0.00 | 0.00 | 50 | 1018.7 |
| 20260507105100 | 71 | 0 | 9.0 | 13.0 | 0.00 | 0.00 | 0.00 | 49 | 1018.8 |
| 20260507104600 | 71 | 0 | 7.0 | 13.0 | 0.00 | 0.00 | 0.00 | 51 | 1018.8 |
| 20260507104100 | 72 | 0 | 7.0 | 11.0 | 0.00 | 0.00 | 0.00 | 50 | 1018.8 |
| 20260507103600 | 72 | 0 | 3.0 | 10.0 | 0.00 | 0.00 | 0.00 | 51 | 1018.8 |
| 20260507103059 | 72 | 0 | 6.0 | 10.0 | 0.00 | 0.00 | 0.00 | 51 | 1018.6 |
| 20260507102559 | 71 | 186 | 5.0 | 11.0 | 0.00 | 0.00 | 0.00 | 52 | 1018.6 |
| 20260507102322 | 71 | 186 | 7.0 | 11.0 | 0.00 | 0.00 | 0.00 | 50 | 1018.6 |
| 20260507101559 | 71 | 203 | 5.0 | 11.0 | 0.00 | 0.00 | 0.00 | 50 | 1018.6 |
| 20260507101058 | 71 | 0 | 5.0 | 14.0 | 0.00 | 0.00 | 0.00 | 49 | 1018.7 |
| 20260507100824 | 71 | 185 | 6.0 | 14.0 | 0.00 | 0.00 | 0.00 | 51 | 1018.8 |
| 20260507100058 | 71 | 165 | 5.0 | 11.0 | 0.00 | 0.00 | 0.00 | 51 | 1018.8 |
| 20260507095559 | 71 | 228 | 6.0 | 11.0 | 0.00 | 0.00 | 0.00 | 50 | 1018.9 |
| 20260507095328 | 71 | 221 | 5.0 | 12.0 | 0.00 | 0.00 | 0.00 | 49 | 1019.0 |
| 20260507094559 | 71 | 186 | 5.0 | 12.0 | 0.00 | 0.00 | 0.00 | 50 | 1019.1 |
| 20260507094058 | 71 | 0 | 5.0 | 11.0 | 0.00 | 0.00 | 0.00 | 51 | 1019.1 |
| 20260507093817 | 71 | 0 | 6.0 | 12.0 | 0.00 | 0.00 | 0.00 | 48 | 1019.0 |
| 20260507093057 | 70 | 0 | 7.0 | 12.0 | 0.00 | 0.00 | 0.00 | 48 | 1019.1 |
| 20260507092558 | 70 | 0 | 6.0 | 12.0 | 0.00 | 0.00 | 0.00 | 51 | 1019.1 |
| 20260507092058 | 69 | 197 | 5.0 | 11.0 | 0.00 | 0.00 | 0.00 | 52 | 1019.2 |
| 20260507091558 | 69 | 0 | 8.0 | 12.0 | 0.00 | 0.00 | 0.00 | 52 | 1019.2 |
| 20260507091057 | 69 | 0 | 7.0 | 12.0 | 0.00 | 0.00 | 0.00 | 53 | 1019.4 |
| 20260507090557 | 68 | 0 | 6.0 | 12.0 | 0.00 | 0.00 | 0.00 | 53 | 1019.4 |
| 20260507090326 | 69 | 0 | 7.0 | 11.0 | 0.00 | 0.00 | 0.00 | 54 | 1019.4 |
| 20260507085558 | 69 | 0 | 6.0 | 11.0 | 0.00 | 0.00 | 0.00 | 54 | 1019.4 |
| 20260507085057 | 69 | 0 | 6.0 | 11.0 | 0.00 | 0.00 | 0.00 | 54 | 1019.3 |
| 20260507084558 | 69 | 162 | 7.0 | 11.0 | 0.00 | 0.00 | 0.00 | 54 | 1019.3 |
| 20260507084046 | 69 | 200 | 5.0 | 11.0 | 0.00 | 0.00 | 0.00 | 55 | 1019.3 |
| 20260507083543 | 70 | 176 | 4.0 | 12.0 | 0.00 | 0.00 | 0.00 | 55 | 1019.2 |
| 20260507083314 | 69 | 231 | 5.0 | 12.0 | 0.00 | 0.00 | 0.00 | 56 | 1019.2 |
| 20260507082541 | 69 | 210 | 3.0 | 12.0 | 0.00 | 0.00 | 0.00 | 55 | 1019.2 |
| 20260507082309 | 69 | 0 | 5.0 | 11.0 | 0.00 | 0.00 | 0.00 | 55 | 1019.0 |
| 20260507081539 | 69 | 192 | 4.0 | 11.0 | 0.00 | 0.00 | 0.00 | 55 | 1018.9 |
| 20260507081303 | 69 | 169 | 5.0 | 11.0 | 0.00 | 0.00 | 0.00 | 56 | 1018.9 |
| 20260507080752 | 69 | 204 | 4.0 | 11.0 | 0.00 | 0.00 | 0.00 | 56 | 1018.9 |
| 20260507080036 | 69 | 0 | 5.0 | 11.0 | 0.00 | 0.00 | 0.00 | 56 | 1018.9 |
| 20260507075533 | 68 | 0 | 5.0 | 11.0 | 0.00 | 0.00 | 0.00 | 55 | 1019.0 |
| 20260507075031 | 68 | 0 | 5.0 | 11.0 | 0.00 | 0.00 | 0.00 | 55 | 1018.9 |
| 20260507074531 | 68 | 0 | 5.0 | 11.0 | 0.00 | 0.00 | 0.00 | 56 | 1019.0 |
| 20260507074032 | 68 | 0 | 6.0 | 11.0 | 0.00 | 0.00 | 0.00 | 56 | 1019.1 |
| 20260507073536 | 68 | 0 | 6.0 | 11.0 | 0.00 | 0.00 | 0.00 | 56 | 1019.0 |
| 20260507073024 | 68 | 0 | 5.0 | 11.0 | 0.00 | 0.00 | 0.00 | 57 | 1019.0 |
| 20260507072523 | 68 | 220 | 5.0 | 11.0 | 0.00 | 0.00 | 0.00 | 57 | 1018.8 |
| 20260507072024 | 68 | 0 | 6.0 | 11.0 | 0.00 | 0.00 | 0.00 | 57 | 1018.8 |
| 20260507071514 | 69 | 0 | 5.0 | 11.0 | 0.00 | 0.00 | 0.00 | 57 | 1018.8 |
| 20260507071014 | 69 | 0 | 4.0 | 10.0 | 0.00 | 0.00 | 0.00 | 57 | 1018.7 |
| 20260507070732 | 69 | 0 | 5.0 | 10.0 | 0.00 | 0.00 | 0.00 | 57 | 1018.6 |
| 20260507070014 | 69 | 179 | 6.0 | 11.0 | 0.00 | 0.00 | 0.00 | 56 | 1018.5 |
| 20260507065511 | 69 | 195 | 4.0 | 11.0 | 0.00 | 0.00 | 0.00 | 56 | 1018.3 |
| 20260507065013 | 69 | 0 | 4.0 | 10.0 | 0.00 | 0.00 | 0.00 | 56 | 1018.3 |
| 20260507064512 | 69 | 237 | 6.0 | 7.0 | 0.00 | 0.00 | 0.00 | 56 | 1018.0 |
| 20260507064009 | 69 | 179 | 4.0 | 10.0 | 0.00 | 0.00 | 0.00 | 56 | 1018.0 |
| 20260507063507 | 68 | 179 | 4.0 | 10.0 | 0.00 | 0.00 | 0.00 | 56 | 1018.0 |
| 20260507063006 | 68 | 196 | 4.0 | 9.0 | 0.00 | 0.00 | 0.00 | 55 | 1018.0 |
| 20260507062505 | 68 | 196 | 4.0 | 9.0 | 0.00 | 0.00 | 0.00 | 55 | 1018.0 |
| 20260507062003 | 68 | 180 | 2.0 | 7.0 | 0.00 | 0.00 | 0.00 | 56 | 1018.0 |
| 20260507061500 | 68 | 0 | 4.0 | 7.0 | 0.00 | 0.00 | 0.00 | 56 | 1017.9 |
| 20260507061000 | 68 | 186 | 2.0 | 6.0 | 0.00 | 0.00 | 0.00 | 56 | 1017.8 |
| 20260507060723 | 68 | 220 | 4.0 | 6.0 | 0.00 | 0.00 | 0.00 | 56 | 1017.9 |
| 20260507055958 | 67 | 226 | 2.0 | 7.0 | 0.00 | 0.00 | 0.00 | 56 | 1018.0 |
| 20260507055456 | 68 | 186 | 2.0 | 7.0 | 0.00 | 0.00 | 0.00 | 56 | 1017.9 |
| 20260507054953 | 67 | 231 | 2.0 | 6.0 | 0.00 | 0.00 | 0.00 | 56 | 1017.9 |
| 20260507054454 | 67 | 188 | 1.0 | 5.0 | 0.00 | 0.00 | 0.00 | 56 | 1017.9 |
| 20260507053953 | 66 | 0 | 3.0 | 4.0 | 0.00 | 0.00 | 0.00 | 56 | 1017.9 |
| 20260507053454 | 65 | 200 | 2.0 | 4.0 | 0.00 | 0.00 | 0.00 | 56 | 1018.0 |
| 20260507052953 | 65 | 182 | 1.0 | 3.0 | 0.00 | 0.00 | 0.00 | 56 | 1018.0 |
| 20260507052943 | 63 | 169 | 2.0 | 5.0 | 0.00 | 0.00 | 0.00 | 57 | 1017.9 |
| 20260507051953 | 62 | 180 | 0.0 | 5.0 | 0.00 | 0.00 | 0.00 | 57 | 1018.0 |
| 20260507051451 | 62 | 185 | 2.0 | 4.0 | 0.00 | 0.00 | 0.00 | 58 | 1017.9 |
| 20260507050952 | 61 | 31 | 0.0 | 0.0 | 0.00 | 0.00 | 0.00 | 60 | 1017.8 |
| 20260507050453 | 60 | 4 | 0.0 | 2.0 | 0.00 | 0.00 | 0.00 | 61 | 1017.7 |
| 20260507045952 | 60 | 4 | 1.0 | 3.0 | 0.00 | 0.00 | 0.00 | 61 | 1017.7 |
| 20260507045451 | 59 | 0 | 2.0 | 3.0 | 0.00 | 0.00 | 0.00 | 61 | 1017.7 |
| 20260507044951 | 58 | 0 | 2.0 | 4.0 | 0.00 | 0.00 | 0.00 | 62 | 1017.7 |
| 20260507044715 | 57 | 0 | 2.0 | 5.0 | 0.00 | 0.00 | 0.00 | 62 | 1017.6 |
| 20260507043951 | 57 | 338 | 3.0 | 6.0 | 0.00 | 0.00 | 0.00 | 63 | 1017.7 |
| 20260507043719 | 57 | 0 | 5.0 | 6.0 | 0.00 | 0.00 | 0.00 | 64 | 1017.6 |
| 20260507042952 | 57 | 0 | 3.0 | 5.0 | 0.00 | 0.00 | 0.00 | 64 | 1017.6 |
| 20260507042452 | 57 | 343 | 2.0 | 4.0 | 0.00 | 0.00 | 0.00 | 64 | 1017.7 |
| 20260507041952 | 57 | 316 | 2.0 | 3.0 | 0.00 | 0.00 | 0.00 | 64 | 1017.7 |
| 20260507041451 | 56 | 319 | 2.0 | 4.0 | 0.00 | 0.00 | 0.00 | 64 | 1017.6 |
| 20260507040950 | 56 | 316 | 3.0 | 4.0 | 0.00 | 0.00 | 0.00 | 64 | 1017.6 |
| 20260507040450 | 55 | 0 | 2.0 | 3.0 | 0.00 | 0.00 | 0.00 | 63 | 1017.6 |
| 20260507035950 | 55 | 317 | 2.0 | 3.0 | 0.00 | 0.00 | 0.00 | 64 | 1017.7 |
| 20260507035450 | 55 | 321 | 1.0 | 3.0 | 0.00 | 0.00 | 0.00 | 63 | 1017.7 |
| 20260507034950 | 55 | 323 | 0.0 | 3.0 | 0.00 | 0.00 | 0.00 | 63 | 1017.6 |
| 20260507034451 | 54 | 0 | 2.0 | 3.0 | 0.00 | 0.00 | 0.00 | 63 | 1017.6 |
| 20260507034213 | 55 | 303 | 2.0 | 3.0 | 0.00 | 0.00 | 0.00 | 63 | 1017.4 |
| 20260507033449 | 55 | 310 | 0.0 | 3.0 | 0.00 | 0.00 | 0.00 | 63 | 1017.4 |
| 20260507032949 | 55 | 306 | 1.0 | 3.0 | 0.00 | 0.00 | 0.00 | 63 | 1017.3 |
| 20260507032449 | 54 | 300 | 2.0 | 3.0 | 0.00 | 0.00 | 0.00 | 63 | 1017.2 |
| 20260507031950 | 54 | 313 | 0.0 | 3.0 | 0.00 | 0.00 | 0.00 | 63 | 1017.2 |
| 20260507031450 | 54 | 312 | 2.0 | 4.0 | 0.00 | 0.00 | 0.00 | 63 | 1017.3 |
| 20260507030950 | 53 | 0 | 3.0 | 4.0 | 0.00 | 0.00 | 0.00 | 62 | 1017.1 |
| 20260507030449 | 53 | 312 | 2.0 | 3.0 | 0.00 | 0.00 | 0.00 | 62 | 1017.0 |
| 20260507030211 | 54 | 316 | 1.0 | 3.0 | 0.00 | 0.00 | 0.00 | 62 | 1017.0 |
| 20260507025449 | 53 | 317 | 2.0 | 3.0 | 0.00 | 0.00 | 0.00 | 62 | 1017.0 |
| 20260507024950 | 54 | 327 | 1.0 | 2.0 | 0.00 | 0.00 | 0.00 | 62 | 1016.9 |
| 20260507024713 | 54 | 327 | 0.0 | 3.0 | 0.00 | 0.00 | 0.00 | 62 | 1016.7 |
| 20260507024429 | 54 | 323 | 2.0 | 4.0 | 0.00 | 0.00 | 0.00 | 62 | 1016.6 |
| 20260507023448 | 54 | 0 | 3.0 | 4.0 | 0.00 | 0.00 | 0.00 | 62 | 1016.7 |
| 20260507022948 | 54 | 319 | 2.0 | 4.0 | 0.00 | 0.00 | 0.00 | 62 | 1016.6 |
| 20260507022710 | 54 | 0 | 2.0 | 4.0 | 0.00 | 0.00 | 0.00 | 62 | 1016.6 |
| 20260507021950 | 54 | 306 | 2.0 | 4.0 | 0.00 | 0.00 | 0.00 | 62 | 1016.7 |
| 20260507021449 | 54 | 334 | 1.0 | 3.0 | 0.00 | 0.00 | 0.00 | 62 | 1016.6 |
| 20260507021211 | 54 | 0 | 2.0 | 4.0 | 0.00 | 0.00 | 0.00 | 62 | 1016.7 |
| 20260507020449 | 54 | 0 | 3.0 | 4.0 | 0.00 | 0.00 | 0.00 | 62 | 1016.7 |
| 20260507015948 | 54 | 331 | 1.0 | 4.0 | 0.00 | 0.00 | 0.00 | 62 | 1016.7 |
| 20260507015448 | 54 | 0 | 2.0 | 4.0 | 0.00 | 0.00 | 0.00 | 62 | 1016.7 |
| 20260507014948 | 54 | 305 | 3.0 | 4.0 | 0.00 | 0.00 | 0.00 | 62 | 1016.6 |
| 20260507014448 | 53 | 314 | 3.0 | 4.0 | 0.00 | 0.00 | 0.00 | 62 | 1016.6 |
| 20260507014433 | 53 | 0 | 2.0 | 4.0 | 0.00 | 0.00 | 0.00 | 62 | 1016.8 |
| 20260507013448 | 53 | 0 | 3.0 | 4.0 | 0.00 | 0.00 | 0.00 | 62 | 1016.7 |
| 20260507012948 | 53 | 0 | 3.0 | 4.0 | 0.00 | 0.00 | 0.00 | 62 | 1016.6 |
| 20260507012719 | 53 | 306 | 2.0 | 3.0 | 0.00 | 0.00 | 0.00 | 62 | 1016.7 |
| 20260507012212 | 53 | 306 | 2.0 | 3.0 | 0.00 | 0.00 | 0.00 | 63 | 1016.7 |
| 20260507011710 | 54 | 0 | 2.0 | 4.0 | 0.00 | 0.00 | 0.00 | 63 | 1016.6 |
| 20260507010946 | 54 | 306 | 2.0 | 4.0 | 0.00 | 0.00 | 0.00 | 62 | 1016.5 |
| 20260507010447 | 54 | 321 | 2.0 | 4.0 | 0.00 | 0.00 | 0.00 | 63 | 1016.5 |
| 20260507005946 | 54 | 316 | 3.0 | 4.0 | 0.00 | 0.00 | 0.00 | 63 | 1016.5 |
| 20260507005446 | 54 | 0 | 3.0 | 4.0 | 0.00 | 0.00 | 0.00 | 62 | 1016.5 |
| 20260507004947 | 55 | 0 | 2.0 | 3.0 | 0.00 | 0.00 | 0.00 | 63 | 1016.5 |
| 20260507004446 | 55 | 334 | 1.0 | 4.0 | 0.00 | 0.00 | 0.00 | 63 | 1016.5 |
| 20260507003945 | 56 | 334 | 2.0 | 5.0 | 0.00 | 0.00 | 0.00 | 63 | 1016.5 |
| 20260507003445 | 56 | 0 | 4.0 | 5.0 | 0.00 | 0.00 | 0.00 | 63 | 1016.5 |
| 20260507002946 | 56 | 0 | 3.0 | 4.0 | 0.00 | 0.00 | 0.00 | 63 | 1016.3 |
| 20260507002705 | 56 | 0 | 3.0 | 4.0 | 0.00 | 0.00 | 0.00 | 63 | 1016.4 |
| 20260507002212 | 56 | 316 | 2.0 | 5.0 | 0.00 | 0.00 | 0.00 | 63 | 1016.5 |
| 20260507001719 | 56 | 0 | 3.0 | 5.0 | 0.00 | 0.00 | 0.00 | 63 | 1016.6 |
| 20260507001213 | 56 | 0 | 3.0 | 4.0 | 0.00 | 0.00 | 0.00 | 63 | 1016.5 |
| 20260507000445 | 57 | 0 | 3.0 | 4.0 | 0.00 | 0.00 | 0.00 | 63 | 1016.5 |
| 20260506235944 | 57 | 0 | 3.0 | 4.0 | 0.00 | 0.00 | 0.00 | 63 | 1016.5 |
| 20260506235445 | 57 | 0 | 2.0 | 4.0 | 0.00 | 0.00 | 0.00 | 63 | 1016.6 |
| 20260506234945 | 57 | 310 | 3.0 | 4.0 | 0.00 | 0.00 | 0.00 | 63 | 1016.5 |
| 20260506234444 | 57 | 320 | 3.0 | 5.0 | 0.00 | 0.00 | 0.00 | 63 | 1016.6 |
| 20260506233944 | 57 | 313 | 3.0 | 5.0 | 0.00 | 0.00 | 0.00 | 63 | 1016.7 |
| 20260506233445 | 57 | 0 | 3.0 | 5.0 | 0.00 | 0.00 | 0.00 | 63 | 1016.8 |
| 20260506233210 | 57 | 317 | 2.0 | 3.0 | 0.00 | 0.00 | 0.00 | 63 | 1016.9 |